Time,TemperatureF,DewpointF,PressureIn,WindDirection,WindDirectionDegrees,WindSpeedMPH,WindSpeedGustMPH,Humidity,HourlyPrecipIn,Conditions,Clouds,dailyrainin,SoftwareType,DateUTC
2013-01-17 00:00:00,48.4,23.3,30.20,NNW,347,0.0,5.4,37,0.00,,CLR,0.00,VWS V14.01,2013-01-17 08:00:00,
2013-01-17 00:10:00,48.2,23.2,30.20,WNW,299,0.0,4.8,37,0.00,,CLR,0.00,VWS V14.01,2013-01-17 08:10:00,
2013-01-17 00:20:00,48.2,23.2,30.20,WSW,255,0.0,4.8,37,0.00,,CLR,0.00,VWS V14.01,2013-01-17 08:20:00,
2013-01-17 00:30:00,48.4,23.3,30.20,WNW,285,4.8,4.8,37,0.00,,CLR,0.00,VWS V14.01,2013-01-17 08:30:00,
2013-01-17 00:40:00,48.9,23.8,30.20,NNW,347,0.0,6.4,37,0.00,,CLR,0.00,VWS V14.01,2013-01-17 08:40:00,
2013-01-17 00:50:00,49.1,24.0,30.20,West,267,2.7,4.3,37,0.00,,CLR,0.00,VWS V14.01,2013-01-17 08:50:00,
2013-01-17 01:00:00,48.7,23.6,30.20,NW,317,3.8,5.9,37,0.00,,CLR,0.00,VWS V14.01,2013-01-17 09:00:00,
2013-01-17 01:10:00,48.7,23.6,30.20,WNW,283,4.8,5.9,37,0.00,,CLR,0.00,VWS V14.01,2013-01-17 09:10:00,
2013-01-17 01:20:00,48.9,23.8,30.20,WNW,303,4.3,4.8,37,0.00,,CLR,0.00,VWS V14.01,2013-01-17 09:20:00,
2013-01-17 01:30:00,48.9,23.8,30.20,WNW,291,5.9,5.9,37,0.00,,CLR,0.00,VWS V14.01,2013-01-17 09:30:00,
2013-01-17 01:40:00,48.7,23.6,30.20,WNW,298,3.2,5.9,37,0.00,,CLR,0.00,VWS V14.01,2013-01-17 09:40:00,
2013-01-17 01:50:00,48.6,23.5,30.20,NW,320,3.2,3.8,37,0.00,,CLR,0.00,VWS V14.01,2013-01-17 09:50:00,
2013-01-17 02:00:00,48.2,23.2,30.20,NW,310,0.0,4.3,37,0.00,,CLR,0.00,VWS V14.01,2013-01-17 10:00:00,
2013-01-17 02:10:00,48.4,23.3,30.20,West,274,4.3,4.8,37,0.00,,CLR,0.00,VWS V14.01,2013-01-17 10:10:00,
2013-01-17 02:20:00,48.6,23.5,30.20,NW,304,4.3,6.4,37,0.00,,CLR,0.00,VWS V14.01,2013-01-17 10:20:00,
2013-01-17 02:30:00,48.6,23.5,30.20,NNW,338,0.0,4.8,37,0.00,,CLR,0.00,VWS V14.01,2013-01-17 10:30:00,
2013-01-17 02:40:00,48.4,23.3,30.20,NNW,334,3.2,5.9,37,0.00,,CLR,0.00,VWS V14.01,2013-01-17 10:40:00,
2013-01-17 02:50:00,48.2,23.2,30.20,NW,326,4.3,4.8,37,0.00,,CLR,0.00,VWS V14.01,2013-01-17 10:50:00,
2013-01-17 03:00:00,48.0,23.0,30.20,NW,314,4.8,4.8,37,0.00,,CLR,0.00,VWS V14.01,2013-01-17 11:00:00,
2013-01-17 03:10:00,48.4,23.3,30.20,NNW,347,3.2,6.4,37,0.00,,CLR,0.00,VWS V14.01,2013-01-17 11:10:00,
2013-01-17 03:20:00,48.6,23.5,30.20,NNW,330,2.7,5.9,37,0.00,,CLR,0.00,VWS V14.01,2013-01-17 11:20:00,
2013-01-17 03:30:00,48.6,23.5,30.20,SSE,155,0.0,3.2,37,0.00,,CLR,0.00,VWS V14.01,2013-01-17 11:30:00,
2013-01-17 03:40:00,48.4,23.3,30.20,NW,318,4.3,4.8,37,0.00,,CLR,0.00,VWS V14.01,2013-01-17 11:40:00,
2013-01-17 03:50:00,48.6,23.5,30.20,North,351,3.2,4.8,37,0.00,,CLR,0.00,VWS V14.01,2013-01-17 11:50:00,
2013-01-17 04:00:00,48.6,23.5,30.20,North,0,0.0,4.3,37,0.00,,CLR,0.00,VWS V14.01,2013-01-17 12:00:00,
2013-01-17 04:10:00,48.4,23.3,30.20,WNW,293,3.8,4.8,37,0.00,,CLR,0.00,VWS V14.01,2013-01-17 12:10:00,
2013-01-17 04:20:00,48.2,23.2,30.17,NW,323,2.7,3.8,37,0.00,,CLR,0.00,VWS V14.01,2013-01-17 12:20:00,
2013-01-17 04:30:00,48.0,23.0,30.17,North,356,0.0,3.2,37,0.00,,CLR,0.00,VWS V14.01,2013-01-17 12:30:00,
2013-01-17 04:40:00,47.7,22.7,30.17,North,356,0.0,2.7,37,0.00,,CLR,0.00,VWS V14.01,2013-01-17 12:40:00,
2013-01-17 04:50:00,47.5,22.5,30.17,NNE,12,0.0,3.8,37,0.00,,CLR,0.00,VWS V14.01,2013-01-17 12:50:00,
2013-01-17 05:00:00,47.3,22.4,30.17,SSE,160,0.0,3.2,37,0.00,,CLR,0.00,VWS V14.01,2013-01-17 13:00:00,
2013-01-17 05:10:00,47.7,22.7,30.17,NNW,338,0.0,5.4,37,0.00,,CLR,0.00,VWS V14.01,2013-01-17 13:10:00,
2013-01-17 05:20:00,47.8,22.9,30.17,NNW,338,0.0,4.3,37,0.00,,CLR,0.00,VWS V14.01,2013-01-17 13:20:00,
2013-01-17 05:30:00,48.2,23.2,30.17,North,1,0.0,4.3,37,0.00,,CLR,0.00,VWS V14.01,2013-01-17 13:30:00,
2013-01-17 05:40:00,48.4,23.3,30.17,East,82,0.0,2.7,37,0.00,,,0.00,VWS V14.01,2013-01-17 13:40:00,
2013-01-17 05:50:00,48.6,23.5,30.17,NNE,23,7.5,8.6,37,0.00,,,0.00,VWS V14.01,2013-01-17 13:50:00,
2013-01-17 06:00:00,55.0,28.6,30.17,North,6,9.9,9.9,36,0.00,,,0.00,VWS V14.01,2013-01-17 14:00:00,
2013-01-17 06:10:00,58.3,30.8,30.17,NNE,20,7.5,9.9,35,0.00,,,0.00,VWS V14.01,2013-01-17 14:10:00,
2013-01-17 06:20:00,59.4,31.7,30.17,NE,36,6.4,12.1,35,0.00,,,0.00,VWS V14.01,2013-01-17 14:20:00,
2013-01-17 06:30:00,59.5,31.9,30.17,NNE,13,4.8,10.5,35,0.00,,,0.00,VWS V14.01,2013-01-17 14:30:00,
2013-01-17 06:40:00,59.4,31.7,30.17,NE,35,4.3,9.7,35,0.00,,CLR,0.00,VWS V14.01,2013-01-17 14:40:00,
2013-01-17 06:50:00,58.3,30.8,30.17,NNE,15,4.3,5.9,35,0.00,,CLR,0.00,VWS V14.01,2013-01-17 14:50:00,
2013-01-17 07:00:00,57.2,29.8,30.17,East,82,0.0,4.3,35,0.00,,CLR,0.00,VWS V14.01,2013-01-17 15:00:00,
2013-01-17 07:10:00,56.3,29.0,30.17,NE,54,3.8,5.9,35,0.00,,CLR,0.00,VWS V14.01,2013-01-17 15:10:00,
2013-01-17 07:20:00,55.6,28.4,30.17,NE,56,0.0,4.8,35,0.00,,CLR,0.00,VWS V14.01,2013-01-17 15:20:00,
2013-01-17 07:30:00,54.9,28.4,30.17,East,85,3.8,5.9,36,0.00,,CLR,0.00,VWS V14.01,2013-01-17 15:30:00,
2013-01-17 07:40:00,54.9,28.4,30.17,NE,53,0.0,4.8,36,0.00,,CLR,0.00,VWS V14.01,2013-01-17 15:40:00,
2013-01-17 07:50:00,54.7,28.3,30.20,ESE,123,0.0,4.8,36,0.00,,CLR,0.00,VWS V14.01,2013-01-17 15:50:00,
2013-01-17 08:00:00,54.9,28.4,30.20,NNE,33,4.3,6.4,36,0.00,,CLR,0.00,VWS V14.01,2013-01-17 16:00:00,
2013-01-17 08:10:00,58.8,31.2,30.20,NE,39,7.0,12.1,35,0.00,,CLR,0.00,VWS V14.01,2013-01-17 16:10:00,
2013-01-17 08:20:00,60.6,32.8,30.20,NE,48,7.0,9.7,35,0.00,,CLR,0.00,VWS V14.01,2013-01-17 16:20:00,
2013-01-17 08:30:00,61.2,32.6,30.20,ENE,62,0.0,7.5,34,0.00,,CLR,0.00,VWS V14.01,2013-01-17 16:30:00,
2013-01-17 08:40:00,61.3,32.8,30.20,ENE,58,7.0,7.5,34,0.00,,CLR,0.00,VWS V14.01,2013-01-17 16:40:00,
2013-01-17 08:50:00,61.7,33.1,30.20,North,9,3.8,7.5,34,0.00,,CLR,0.00,VWS V14.01,2013-01-17 16:50:00,
2013-01-17 09:00:00,63.1,34.3,30.20,NNE,26,7.5,9.9,34,0.00,,CLR,0.00,VWS V14.01,2013-01-17 17:00:00,
2013-01-17 09:10:00,66.0,36.1,30.20,NNE,27,9.7,13.7,33,0.00,,CLR,0.00,VWS V14.01,2013-01-17 17:10:00,
2013-01-17 09:20:00,67.8,37.7,30.20,NNW,340,6.4,16.9,33,0.00,,CLR,0.00,VWS V14.01,2013-01-17 17:20:00,
2013-01-17 09:30:00,68.4,38.2,30.20,North,0,9.9,14.8,33,0.00,,CLR,0.00,VWS V14.01,2013-01-17 17:30:00,
2013-01-17 09:40:00,68.5,38.3,30.20,NE,50,6.4,9.9,33,0.00,,CLR,0.00,VWS V14.01,2013-01-17 17:40:00,
2013-01-17 09:50:00,69.4,39.1,30.20,NNE,14,4.8,11.5,33,0.00,,CLR,0.00,VWS V14.01,2013-01-17 17:50:00,
2013-01-17 10:00:00,70.9,39.6,30.20,North,1,13.2,19.1,32,0.00,,CLR,0.00,VWS V14.01,2013-01-17 18:00:00,
2013-01-17 10:10:00,71.6,40.2,30.20,NE,50,13.2,20.9,32,0.00,,CLR,0.00,VWS V14.01,2013-01-17 18:10:00,
2013-01-17 10:20:00,72.0,40.5,30.20,NNE,28,9.1,20.9,32,0.00,,CLR,0.00,VWS V14.01,2013-01-17 18:20:00,
2013-01-17 10:30:00,72.5,41.0,30.20,ENE,78,13.2,18.5,32,0.00,,CLR,0.00,VWS V14.01,2013-01-17 18:30:00,
2013-01-17 10:40:00,73.2,41.6,30.20,NNE,15,10.5,23.6,32,0.00,,CLR,0.00,VWS V14.01,2013-01-17 18:40:00,
2013-01-17 10:50:00,73.8,41.3,30.20,ENE,58,10.5,28.5,31,0.00,,CLR,0.00,VWS V14.01,2013-01-17 18:50:00,
2013-01-17 11:00:00,74.1,41.6,30.20,NE,37,9.9,24.2,31,0.00,,CLR,0.00,VWS V14.01,2013-01-17 19:00:00,
2013-01-17 11:10:00,75.0,42.4,30.17,NE,44,13.2,19.1,31,0.00,,CLR,0.00,VWS V14.01,2013-01-17 19:10:00,
2013-01-17 11:20:00,75.4,42.7,30.17,ENE,57,12.6,20.9,31,0.00,,CLR,0.00,VWS V14.01,2013-01-17 19:20:00,
2013-01-17 11:30:00,75.9,43.1,30.17,NNE,30,9.9,21.5,31,0.00,,CLR,0.00,VWS V14.01,2013-01-17 19:30:00,
2013-01-17 11:40:00,76.3,43.5,30.17,NNE,21,9.7,24.2,31,0.00,,CLR,0.00,VWS V14.01,2013-01-17 19:40:00,
2013-01-17 11:50:00,76.3,43.5,30.14,NE,43,7.5,23.6,31,0.00,,CLR,0.00,VWS V14.01,2013-01-17 19:50:00,
2013-01-17 12:00:00,76.6,43.8,30.14,East,83,14.2,23.6,31,0.00,,CLR,0.00,VWS V14.01,2013-01-17 20:00:00,
2013-01-17 12:10:00,76.8,43.9,30.14,NE,53,15.8,19.1,31,0.00,,CLR,0.00,VWS V14.01,2013-01-17 20:10:00,
2013-01-17 12:20:00,77.7,44.7,30.14,ENE,78,9.7,23.6,31,0.00,,CLR,0.00,VWS V14.01,2013-01-17 20:20:00,
2013-01-17 12:30:00,77.5,44.5,30.14,NE,56,10.5,20.1,31,0.00,,CLR,0.00,VWS V14.01,2013-01-17 20:30:00,
2013-01-17 12:40:00,77.5,44.5,30.11,NE,46,7.5,23.6,31,0.00,,CLR,0.00,VWS V14.01,2013-01-17 20:40:00,
2013-01-17 12:50:00,77.7,44.7,30.11,East,89,9.1,24.2,31,0.00,,CLR,0.00,VWS V14.01,2013-01-17 20:50:00,
2013-01-17 13:00:00,77.9,44.9,30.11,ENE,72,13.2,26.3,31,0.00,,CLR,0.00,VWS V14.01,2013-01-17 21:00:00,
2013-01-17 13:10:00,78.4,45.3,30.11,ENE,57,13.2,19.1,31,0.00,,CLR,0.00,VWS V14.01,2013-01-17 21:10:00,
2013-01-17 13:20:00,78.3,45.2,30.11,East,101,12.6,22.5,31,0.00,,CLR,0.00,VWS V14.01,2013-01-17 21:20:00,
2013-01-17 13:30:00,78.1,45.0,30.11,ENE,69,18.5,23.1,31,0.00,,CLR,0.00,VWS V14.01,2013-01-17 21:30:00,
2013-01-17 13:40:00,78.6,45.5,30.11,NNE,20,10.5,18.5,31,0.00,,CLR,0.00,VWS V14.01,2013-01-17 21:40:00,
2013-01-17 13:50:00,78.1,45.0,30.11,NNE,26,12.6,20.4,31,0.00,,CLR,0.00,VWS V14.01,2013-01-17 21:50:00,
2013-01-17 14:00:00,77.7,44.7,30.11,NE,48,13.2,19.1,31,0.00,,CLR,0.00,VWS V14.01,2013-01-17 22:00:00,
2013-01-17 14:10:00,78.1,45.0,30.08,ENE,63,15.8,20.9,31,0.00,,CLR,0.00,VWS V14.01,2013-01-17 22:10:00,
2013-01-17 14:20:00,78.3,45.2,30.11,ENE,61,7.5,16.4,31,0.00,,CLR,0.00,VWS V14.01,2013-01-17 22:20:00,
2013-01-17 14:30:00,79.2,45.1,30.11,NNW,329,11.5,14.2,30,0.00,,CLR,0.00,VWS V14.01,2013-01-17 22:30:00,
2013-01-17 14:40:00,79.7,45.6,30.11,NE,52,5.9,16.9,30,0.00,,CLR,0.00,VWS V14.01,2013-01-17 22:40:00,
2013-01-17 14:50:00,79.0,44.9,30.11,SSW,202,5.4,10.5,30,0.00,,CLR,0.00,VWS V14.01,2013-01-17 22:50:00,
2013-01-17 15:00:00,77.9,44.9,30.11,SW,214,7.5,9.1,31,0.00,,CLR,0.00,VWS V14.01,2013-01-17 23:00:00,
2013-01-17 15:10:00,76.6,43.8,30.11,West,262,9.1,9.1,31,0.00,,CLR,0.00,VWS V14.01,2013-01-17 23:10:00,
2013-01-17 15:20:00,75.6,42.8,30.11,SSW,209,4.3,9.1,31,0.00,,CLR,0.00,VWS V14.01,2013-01-17 23:20:00,
2013-01-17 15:30:00,75.2,42.5,30.11,SW,233,4.3,8.1,31,0.00,,CLR,0.00,VWS V14.01,2013-01-17 23:30:00,
2013-01-17 15:40:00,73.8,41.3,30.11,SSW,211,9.7,9.7,31,0.00,,CLR,0.00,VWS V14.01,2013-01-17 23:40:00,
2013-01-17 15:50:00,72.1,40.7,30.11,SW,228,4.8,9.9,32,0.00,,CLR,0.00,VWS V14.01,2013-01-17 23:50:00,
2013-01-17 16:00:00,70.7,39.4,30.11,WSW,252,4.8,9.7,32,0.00,,CLR,0.00,VWS V14.01,2013-01-18 00:00:00,
2013-01-17 16:10:00,69.6,39.3,30.11,SSW,204,7.0,9.7,33,0.00,,CLR,0.00,VWS V14.01,2013-01-18 00:10:00,
2013-01-17 16:20:00,68.9,38.6,30.11,SW,232,3.2,8.1,33,0.00,,CLR,0.00,VWS V14.01,2013-01-18 00:20:00,
2013-01-17 16:30:00,68.2,38.0,30.11,WSW,257,3.8,8.1,33,0.00,,CLR,0.00,VWS V14.01,2013-01-18 00:30:00,
2013-01-17 16:40:00,67.5,37.4,30.11,West,263,6.4,6.4,33,0.00,,CLR,0.00,VWS V14.01,2013-01-18 00:40:00,
2013-01-17 16:50:00,66.7,36.8,30.11,SSW,210,0.0,7.0,33,0.00,,CLR,0.00,VWS V14.01,2013-01-18 00:50:00,
2013-01-17 17:00:00,66.2,36.3,30.11,West,273,0.0,5.9,33,0.00,,CLR,0.00,VWS V14.01,2013-01-18 01:00:00,
2013-01-17 17:10:00,65.7,35.8,30.11,SSW,213,0.0,5.9,33,0.00,,CLR,0.00,VWS V14.01,2013-01-18 01:10:00,
2013-01-17 17:20:00,64.6,34.8,30.14,West,262,0.0,4.3,33,0.00,,CLR,0.00,VWS V14.01,2013-01-18 01:20:00,
2013-01-17 17:30:00,63.9,35.0,30.14,SSW,208,3.2,6.4,34,0.00,,CLR,0.00,VWS V14.01,2013-01-18 01:30:00,
2013-01-17 17:40:00,63.1,34.3,30.14,West,271,3.2,4.8,34,0.00,,CLR,0.00,VWS V14.01,2013-01-18 01:40:00,
2013-01-17 17:50:00,62.6,33.9,30.14,NNW,331,0.0,4.8,34,0.00,,CLR,0.00,VWS V14.01,2013-01-18 01:50:00,
2013-01-17 18:00:00,61.9,33.2,30.14,NNE,26,3.8,5.9,34,0.00,,CLR,0.00,VWS V14.01,2013-01-18 02:00:00,
2013-01-17 18:10:00,61.3,32.8,30.14,NNW,330,0.0,4.3,34,0.00,,CLR,0.00,VWS V14.01,2013-01-18 02:10:00,
2013-01-17 18:20:00,60.8,32.3,30.14,WNW,296,0.0,4.3,34,0.00,,CLR,0.00,VWS V14.01,2013-01-18 02:20:00,
2013-01-17 18:30:00,60.4,32.7,30.14,North,356,0.0,3.8,35,0.00,,CLR,0.00,VWS V14.01,2013-01-18 02:30:00,
2013-01-17 18:40:00,59.7,32.0,30.14,WSW,245,0.0,6.4,35,0.00,,CLR,0.00,VWS V14.01,2013-01-18 02:40:00,
2013-01-17 18:50:00,59.7,32.0,30.14,WNW,295,4.8,6.4,35,0.00,,CLR,0.00,VWS V14.01,2013-01-18 02:50:00,
2013-01-17 19:00:00,59.5,31.9,30.14,West,270,0.0,5.9,35,0.00,,CLR,0.00,VWS V14.01,2013-01-18 03:00:00,
2013-01-17 19:10:00,58.8,31.2,30.14,NNW,332,3.8,3.8,35,0.00,,CLR,0.00,VWS V14.01,2013-01-18 03:10:00,
2013-01-17 19:20:00,58.3,30.8,30.14,North,6,0.0,4.8,35,0.00,,CLR,0.00,VWS V14.01,2013-01-18 03:20:00,
2013-01-17 19:30:00,57.7,30.3,30.14,ENE,60,2.7,3.2,35,0.00,,CLR,0.00,VWS V14.01,2013-01-18 03:30:00,
2013-01-17 19:40:00,58.3,30.8,30.14,NNE,23,3.8,8.6,35,0.00,,CLR,0.00,VWS V14.01,2013-01-18 03:40:00,
2013-01-17 19:50:00,58.6,31.1,30.14,NNE,18,3.8,7.5,35,0.00,,CLR,0.00,VWS V14.01,2013-01-18 03:50:00,
2013-01-17 20:00:00,58.6,31.1,30.14,NE,49,3.8,4.3,35,0.00,,CLR,0.00,VWS V14.01,2013-01-18 04:00:00,
2013-01-17 20:10:00,58.5,30.9,30.14,NE,53,0.0,4.8,35,0.00,,CLR,0.00,VWS V14.01,2013-01-18 04:10:00,
2013-01-17 20:20:00,58.1,30.6,30.17,NE,46,3.2,7.0,35,0.00,,CLR,0.00,VWS V14.01,2013-01-18 04:20:00,
2013-01-17 20:30:00,58.5,30.9,30.17,North,10,6.4,7.5,35,0.00,,CLR,0.00,VWS V14.01,2013-01-18 04:30:00,
2013-01-17 20:40:00,59.5,31.9,30.14,NE,41,4.8,7.5,35,0.00,,CLR,0.00,VWS V14.01,2013-01-18 04:40:00,
2013-01-17 20:50:00,60.4,32.7,30.17,NNE,19,7.5,8.1,35,0.00,,CLR,0.00,VWS V14.01,2013-01-18 04:50:00,
2013-01-17 21:00:00,60.6,32.8,30.17,NNE,32,3.8,10.5,35,0.00,,CLR,0.00,VWS V14.01,2013-01-18 05:00:00,
2013-01-17 21:10:00,62.1,33.4,30.17,NNE,22,7.5,9.7,34,0.00,,CLR,0.00,VWS V14.01,2013-01-18 05:10:00,
2013-01-17 21:20:00,63.9,35.0,30.17,NNE,17,7.0,14.8,34,0.00,,CLR,0.00,VWS V14.01,2013-01-18 05:20:00,
2013-01-17 21:30:00,64.2,35.3,30.17,NE,44,5.9,13.2,34,0.00,,CLR,0.00,VWS V14.01,2013-01-18 05:30:00,
2013-01-17 21:40:00,64.6,34.8,30.17,NNE,16,6.4,11.0,33,0.00,,CLR,0.00,VWS V14.01,2013-01-18 05:40:00,
2013-01-17 21:50:00,65.1,35.3,30.17,NNE,24,3.8,9.9,33,0.00,,CLR,0.00,VWS V14.01,2013-01-18 05:50:00,
2013-01-17 22:00:00,65.5,35.6,30.17,ENE,63,6.4,12.1,33,0.00,,CLR,0.00,VWS V14.01,2013-01-18 06:00:00,
2013-01-17 22:10:00,65.7,35.8,30.17,NNE,17,6.4,10.5,33,0.00,,CLR,0.00,VWS V14.01,2013-01-18 06:10:00,
2013-01-17 22:20:00,65.5,35.6,30.14,North,11,7.0,10.5,33,0.00,,CLR,0.00,VWS V14.01,2013-01-18 06:20:00,
2013-01-17 22:30:00,64.8,35.0,30.14,NNW,335,4.8,9.1,33,0.00,,CLR,0.00,VWS V14.01,2013-01-18 06:30:00,
2013-01-17 22:40:00,63.5,34.7,30.14,North,9,4.8,6.4,34,0.00,,CLR,0.00,VWS V14.01,2013-01-18 06:40:00,
2013-01-17 22:50:00,62.4,33.7,30.17,North,356,4.3,6.4,34,0.00,,CLR,0.00,VWS V14.01,2013-01-18 06:50:00,
2013-01-17 23:00:00,61.9,33.2,30.17,NNE,21,7.5,11.5,34,0.00,,CLR,0.00,VWS V14.01,2013-01-18 07:00:00,
2013-01-17 23:10:00,62.2,33.5,30.17,North,7,5.9,10.5,34,0.00,,CLR,0.00,VWS V14.01,2013-01-18 07:10:00,
2013-01-17 23:20:00,61.5,32.9,30.17,NE,56,4.8,7.5,34,0.00,,CLR,0.00,VWS V14.01,2013-01-18 07:20:00,
2013-01-17 23:30:00,60.6,32.8,30.17,NNE,31,3.8,5.9,35,0.00,,CLR,0.00,VWS V14.01,2013-01-18 07:30:00,
2013-01-17 23:40:00,60.1,32.4,30.17,NNE,20,0.0,7.5,35,0.00,,CLR,0.00,VWS V14.01,2013-01-18 07:40:00,
2013-01-17 23:50:00,60.3,32.5,30.17,ENE,58,3.8,8.6,35,0.00,,CLR,0.00,VWS V14.01,2013-01-18 07:50:00,